This is the latest recevied weather packets stored in our database for station/object AI5BL. If no packets are shown the sender has not sent any weather packets the latest 1 day(s).
| Time | Temp. | Humidity | Pressure | Rain* | Wind** | Luminosity | Snow |
|---|---|---|---|---|---|---|---|
| 1778084890 | 23.33° C | 97% | 1016.6 hPa | 0 mm | - | 138 W/m² | - |
| 1778084285 | 22.78° C | 97% | 1016.7 hPa | 0 mm | - | 127 W/m² | - |
| 1778083680 | 22.78° C | 98% | 1016.8 hPa | 0 mm | - | 108 W/m² | - |
| 1778083075 | 22.78° C | 98% | 1016.8 hPa | 0 mm | - | 122 W/m² | - |
| 1778079518 | 22.78° C | 96% | 1017 hPa | 0 mm | - | 53 W/m² | - |
| 1778079214 | 22.78° C | 95% | 1016.9 hPa | 0 mm | - | 53 W/m² | - |
| 1778077702 | 22.78° C | 95% | 1016.7 hPa | 0 mm | - | 89 W/m² | - |
| 1778075280 | 22.22° C | 95% | 1016.5 hPa | 0 mm | - | 45 W/m² | - |
| 1778074976 | 21.67° C | 95% | 1016.3 hPa | 0 mm | - | 35 W/m² | - |
| 1778073764 | 21.67° C | 96% | 1016.2 hPa | 0 mm | - | 44 W/m² | - |
| 1778073462 | 21.67° C | 96% | 1016.1 hPa | 0 mm | - | 64 W/m² | - |
| 1778072250 | 21.11° C | 97% | 1016 hPa | 0 mm | - | 60 W/m² | - |
| 1778071343 | 21.11° C | 97% | 1015.7 hPa | 0 mm | - | 49 W/m² | - |
| 1778071040 | 21.11° C | 97% | 1015.8 hPa | 0 mm | - | 72 W/m² | - |
| 1778068922 | 20.56° C | 98% | 1015.2 hPa | 0 mm | - | 30 W/m² | - |
| 1778068620 | 20° C | 98% | 1015.3 hPa | 0 mm | - | 26 W/m² | - |
| 1778068318 | 20° C | 98% | 1015.2 hPa | 0 mm | - | 16 W/m² | - |
| 1778067411 | 20° C | 98% | 1015.1 hPa | 0 mm | - | 11 W/m² | - |
| 1778067108 | 20° C | 98% | 1015.1 hPa | 0 mm | - | 9 W/m² | - |
| 1778066502 | 20° C | 98% | 1014.8 hPa | 0 mm | - | 6 W/m² | - |
| 1778065897 | 20° C | 98% | 1014.5 hPa | 0 mm | - | 4 W/m² | - |
| 1778064383 | 20° C | 97% | 1014.6 hPa | 0 mm | - | 0 W/m² | - |
| 1778064080 | 20° C | 97% | 1014.6 hPa | 0 mm | - | 0 W/m² | - |
| 1778063474 | 20° C | 96% | 1014.7 hPa | 0 mm | - | 0 W/m² | - |
| 1778062263 | 20.56° C | 96% | 1014.5 hPa | 0 mm | - | 0 W/m² | - |
* Rain latest hour (hover to see other rain measurements)
** Current wind speed in m/s (hover to see current wind gust speed)